Weather History for Manistique, MI

Change the Weather History Date:

Tuesday, October 23, 2012

  Actual Average Record
Temperature  
Mean Temperature 52 °F -  
Max Temperature 55 °F 52 °F 68 °F (1954)
Min Temperature 48 °F 36 °F 20 °F (1969)
Degree Days  
Heating Degree Days 14    
Growing Degree Days 2 (Base 50)    
Moisture  
Dew Point 47 °F    
Average Humidity 81    
Maximum Humidity 88    
Minimum Humidity 72    
Precipitation  
Precipitation 0.00 in - - ()
Sea Level Pressure  
Sea Level Pressure 29.99 in    
Wind  
Wind Speed 11 mph (East)    
Max Wind Speed 18 mph    
Max Gust Speed 26 mph    
Visibility 10 miles    
Events Rain    
Averages and records for this station are not official NWS values.
T = Trace of Precipitation, MM = Missing Value Source: NWS Daily Summary

Daily Weather History Graph

Daily Weather History Graph

Search for Another Location

Airport:

Trip Planner

Search our weather history database for the weather conditions in past years. The results will help you decide how hot, cold, wet, or windy it might be!

Date:

Astronomy

Oct. 23, 2012 Rise Set
Actual Time 8:13 AM EDT 6:43 PM EDT
Civil Twilight 7:42 AM EDT 7:14 PM EDT
Nautical Twilight 7:07 AM EDT 7:49 PM EDT
Astronomical Twilight 6:33 AM EDT 8:23 PM EDT
Moon 3:44 PM EDT (10/23) 1:45 AM EDT (10/23)
Length of Visible Light 11h 31m
Length of Day
10h 30m
Waxing Gibbous, 66% of the Moon is Illuminated
Oct 23
Waxing Gibbous
Oct 29
Full
Nov 6
Last Quarter
Nov 13
New
Nov 20
First Quarter

Hourly Weather History & Observations

Time (EDT) Temp. Dew Point Humidity Pressure Visibility Wind Dir Wind Speed Gust Speed Precip Events Conditions
12:14 AM 51.8 °F 46.4 °F 82% 30.00 in 10.0 mi NNE 10.4 mph - N/A   Overcast
12:35 AM 51.8 °F 46.4 °F 82% 30.00 in 10.0 mi North 6.9 mph - N/A   Overcast
1:15 AM 51.8 °F 46.4 °F 82% 30.00 in 10.0 mi North 6.9 mph - N/A   Overcast
1:35 AM 51.8 °F 46.4 °F 82% 30.00 in 10.0 mi North 5.8 mph - N/A   Overcast
2:15 AM 51.8 °F 46.4 °F 82% 30.00 in 10.0 mi NNE 9.2 mph - N/A   Overcast
2:34 AM 51.8 °F 46.4 °F 82% 30.00 in 10.0 mi NNE 6.9 mph - N/A   Overcast
3:15 AM 53.6 °F 48.2 °F 82% 29.99 in 10.0 mi NE 8.1 mph - N/A   Overcast
3:34 AM 53.6 °F 48.2 °F 82% 30.00 in 10.0 mi NE 8.1 mph - N/A   Overcast
3:55 AM 53.6 °F 48.2 °F 82% 29.99 in 10.0 mi NE 8.1 mph - N/A   Overcast
4:15 AM 53.6 °F 46.4 °F 77% 29.99 in 10.0 mi NE 8.1 mph - N/A   Overcast
4:34 AM 53.6 °F 48.2 °F 82% 29.99 in 10.0 mi NE 6.9 mph - N/A   Overcast
4:55 AM 53.6 °F 46.4 °F 77% 29.99 in 10.0 mi NE 9.2 mph - N/A   Overcast
5:14 AM 53.6 °F 46.4 °F 77% 29.99 in 10.0 mi ENE 11.5 mph 17.3 mph N/A   Overcast
5:35 AM 53.6 °F 46.4 °F 77% 30.00 in 10.0 mi NE 8.1 mph - N/A   Overcast
5:55 AM 51.8 °F 46.4 °F 82% 30.00 in 10.0 mi ENE 11.5 mph - N/A   Mostly Cloudy
6:14 AM 51.8 °F 46.4 °F 82% 30.00 in 10.0 mi NE 9.2 mph - N/A   Scattered Clouds
6:35 AM 51.8 °F 46.4 °F 82% 30.00 in 10.0 mi ENE 9.2 mph - N/A   Scattered Clouds
6:55 AM 51.8 °F 46.4 °F 82% 30.01 in 10.0 mi ENE 8.1 mph - N/A   Scattered Clouds
7:35 AM 50.0 °F 44.6 °F 82% 30.01 in 10.0 mi ENE 5.8 mph - N/A   Scattered Clouds
7:54 AM 48.2 °F 44.6 °F 87% 30.02 in 10.0 mi ENE 5.8 mph - N/A   Scattered Clouds
8:15 AM 50.0 °F 44.6 °F 82% 30.01 in 10.0 mi East 9.2 mph - N/A   Clear
8:34 AM 51.8 °F 46.4 °F 82% 30.00 in 10.0 mi East 12.7 mph - N/A   Scattered Clouds
8:53 AM 51.8 °F 46.4 °F 82% 30.01 in 10.0 mi East 12.7 mph 18.4 mph N/A   Clear
9:15 AM 53.6 °F 46.4 °F 77% 30.01 in 10.0 mi East 10.4 mph 17.3 mph N/A   Scattered Clouds
9:34 AM 53.6 °F 46.4 °F 77% 30.01 in 10.0 mi East 13.8 mph 18.4 mph N/A   Mostly Cloudy
9:55 AM 53.6 °F 46.4 °F 77% 30.00 in 10.0 mi East 13.8 mph 23.0 mph N/A   Scattered Clouds
10:15 AM 53.6 °F 46.4 °F 77% 30.00 in 10.0 mi East 10.4 mph 20.7 mph N/A   Scattered Clouds
10:34 AM 55.4 °F 46.4 °F 72% 29.99 in 10.0 mi East 17.3 mph 20.7 mph N/A   Mostly Cloudy
10:55 AM 55.4 °F 46.4 °F 72% 30.00 in 10.0 mi ESE 17.3 mph 24.2 mph N/A   Scattered Clouds
11:14 AM 55.4 °F 46.4 °F 72% 30.01 in 10.0 mi ESE 18.4 mph 26.5 mph N/A   Mostly Cloudy
11:55 AM 55.4 °F 46.4 °F 72% 30.01 in 10.0 mi East 12.7 mph 25.3 mph N/A   Overcast
12:14 PM 53.6 °F 46.4 °F 77% 30.01 in 10.0 mi East 15.0 mph 20.7 mph N/A   Overcast
12:35 PM 55.4 °F 46.4 °F 72% 30.01 in 10.0 mi East 13.8 mph 24.2 mph N/A   Overcast
12:54 PM 55.4 °F 46.4 °F 72% 30.00 in 10.0 mi East 16.1 mph 23.0 mph N/A   Overcast
1:14 PM 55.4 °F 46.4 °F 72% 30.00 in 10.0 mi East 13.8 mph 24.2 mph N/A   Overcast
1:35 PM 55.4 °F 46.4 °F 72% 29.99 in 10.0 mi East 17.3 mph 24.2 mph N/A   Overcast
1:54 PM 55.4 °F 46.4 °F 72% 29.99 in 10.0 mi East 15.0 mph 21.9 mph N/A   Overcast
2:15 PM 55.4 °F 46.4 °F 72% 29.99 in 10.0 mi East 17.3 mph 23.0 mph N/A   Overcast
2:34 PM 53.6 °F 46.4 °F 77% 29.99 in 10.0 mi East 13.8 mph 17.3 mph N/A   Overcast
2:54 PM 53.6 °F 46.4 °F 77% 29.98 in 10.0 mi East 11.5 mph 24.2 mph N/A   Overcast
3:15 PM 55.4 °F 48.2 °F 77% 29.98 in 10.0 mi East 17.3 mph 21.9 mph N/A   Overcast
3:34 PM 53.6 °F 46.4 °F 77% 29.97 in 10.0 mi East 15.0 mph - N/A   Overcast
3:55 PM 53.6 °F 46.4 °F 77% 29.97 in 10.0 mi East 11.5 mph 20.7 mph N/A   Overcast
4:15 PM 53.6 °F 46.4 °F 77% 29.97 in 10.0 mi East 13.8 mph 20.7 mph N/A   Overcast
4:34 PM 53.6 °F 48.2 °F 82% 29.97 in 10.0 mi East 15.0 mph 24.2 mph N/A   Overcast
4:55 PM 53.6 °F 48.2 °F 82% 29.97 in 10.0 mi East 13.8 mph 18.4 mph N/A   Overcast
5:14 PM 53.6 °F 48.2 °F 82% 29.97 in 10.0 mi East 12.7 mph 23.0 mph N/A   Overcast
5:35 PM 53.6 °F 48.2 °F 82% 29.98 in 10.0 mi East 15.0 mph 23.0 mph N/A   Overcast
5:55 PM 53.6 °F 48.2 °F 82% 29.98 in 10.0 mi East 11.5 mph 20.7 mph N/A   Overcast
6:14 PM 51.8 °F 48.2 °F 88% 29.97 in 4.0 mi East 15.0 mph 20.7 mph N/A   Overcast
6:35 PM 51.8 °F 48.2 °F 88% 29.96 in 7.0 mi East 11.5 mph 18.4 mph N/A   Overcast
6:54 PM 51.8 °F 48.2 °F 88% 29.97 in 10.0 mi East 16.1 mph 23.0 mph N/A Rain Light Rain
7:14 PM 51.8 °F 48.2 °F 88% 29.97 in 10.0 mi East 12.7 mph 18.4 mph N/A   Overcast
7:35 PM 51.8 °F 48.2 °F 88% 29.97 in 10.0 mi East 15.0 mph 19.6 mph N/A   Overcast
7:54 PM 51.8 °F 48.2 °F 88% 29.98 in 10.0 mi East 12.7 mph 21.9 mph N/A   Overcast
8:15 PM 51.8 °F 48.2 °F 88% 29.98 in 10.0 mi East 12.7 mph 17.3 mph N/A   Overcast
8:35 PM 51.8 °F 48.2 °F 88% 29.99 in 10.0 mi East 13.8 mph 21.9 mph N/A   Overcast
8:54 PM 51.8 °F 48.2 °F 88% 29.99 in 10.0 mi East 13.8 mph 20.7 mph N/A   Overcast
9:15 PM 51.8 °F 48.2 °F 88% 29.99 in 10.0 mi East 11.5 mph 21.9 mph N/A   Overcast
9:34 PM 51.8 °F 48.2 °F 88% 29.99 in 10.0 mi ESE 12.7 mph 20.7 mph N/A   Overcast
9:55 PM 51.8 °F 48.2 °F 88% 29.99 in 10.0 mi ESE 12.7 mph - N/A   Overcast
10:15 PM 51.8 °F 48.2 °F 88% 29.98 in 10.0 mi ESE 15.0 mph - N/A   Overcast
10:34 PM 51.8 °F 48.2 °F 88% 29.98 in 5.0 mi ESE 12.7 mph 20.7 mph N/A   Overcast
10:55 PM 51.8 °F 48.2 °F 88% 29.98 in 10.0 mi ESE 12.7 mph 19.6 mph N/A   Overcast
11:35 PM 51.8 °F 48.2 °F 88% 29.98 in 10.0 mi East 11.5 mph - N/A   Overcast
11:55 PM 51.8 °F 48.2 °F 88% 29.98 in 3.0 mi ESE 11.5 mph - N/A Rain Light Rain